Weather History for KFYV - November, 2011

Change the Weather History Date:

Saturday, November 26, 2011

  Actual Average Record
Temperature  
Mean Temperature 49 °F 43 °F  
Max Temperature 59 °F 54 °F 75 °F (1965)
Min Temperature 39 °F 32 °F 12 °F (1975)
Degree Days  
Heating Degree Days 16 22  
Month to date heating degree days 437  
Since 1 July heating degree days 737  
Moisture  
Dew Point 48 °F    
Average Humidity 91    
Maximum Humidity 100    
Minimum Humidity 79    
Precipitation  
Precipitation 0.32 in 0.13 in 0.32 in (2011)
Month to date precipitation 3.69  
Year to date precipitation 44.73  
Sea Level Pressure  
Sea Level Pressure 29.90 in    
Wind  
Wind Speed 14 mph (West)    
Max Wind Speed 21 mph    
Max Gust Speed 28 mph    
Visibility 8 miles    
Events Rain    
T = Trace of Precipitation, MM = Missing Value Source: NWS Daily Summary

Daily Weather History Graph

Daily Weather History Graph

Search for Another Location

Airport or City:

Trip Planner

Search our weather history database for the weather conditions in past years. The results will help you decide how hot, cold, wet, or windy it might be!

Date:

Astronomy

Nov. 26, 2011 Rise Set
Actual Time 7:03 AM CST 5:03 PM CST
Civil Twilight 6:35 AM CST 5:31 PM CST
Nautical Twilight 6:04 AM CST 6:03 PM CST
Astronomical Twilight 5:33 AM CST 6:33 PM CST
Moon 8:33 AM CST (11/26) 6:37 PM CST (11/26)
Length of Visible Light 10h 55m
Length of Day
9h 59m
Waxing Crescent, 3% of the Moon is Illuminated
Nov 26
Waxing Crescent
Dec 2
First Quarter
Dec 10
Full
Dec 17
Last Quarter
Dec 24
New

Hourly Weather History & Observations

Time (CST) Temp. Windchill Dew Point Humidity Pressure Visibility Wind Dir Wind Speed Gust Speed Precip Events Conditions
12:53 AM 57.0 °F - 51.1 °F 81% 29.86 in 10.0 mi South 15.0 mph - N/A   Clear
1:53 AM 57.9 °F - 52.0 °F 81% 29.84 in 10.0 mi South 19.6 mph 25.3 mph N/A   Clear
2:53 AM 57.9 °F - 52.0 °F 81% 29.83 in 10.0 mi South 17.3 mph 25.3 mph N/A   Clear
3:53 AM 59.0 °F - 53.6 °F 82% 29.86 in 10.0 mi South 13.8 mph 21.9 mph N/A   Overcast
4:53 AM 59.0 °F - 53.1 °F 81% 29.81 in 10.0 mi South 17.3 mph 24.2 mph N/A   Overcast
5:53 AM 59.0 °F - 53.1 °F 81% 29.82 in 10.0 mi South 13.8 mph 20.7 mph N/A   Overcast
6:53 AM 57.0 °F - 55.0 °F 93% 29.81 in 5.0 mi SSE 10.4 mph - 0.07 in Rain Rain
7:53 AM 57.0 °F - 55.0 °F 93% 29.83 in 5.0 mi South 13.8 mph 20.7 mph 0.07 in Rain Light Rain
8:19 AM 57.2 °F - 55.4 °F 94% 29.86 in 10.0 mi South 10.4 mph 20.7 mph 0.01 in Rain Light Rain
8:29 AM 57.2 °F - 55.4 °F 94% 29.86 in 10.0 mi South 11.5 mph - 0.02 in Rain Light Rain
8:53 AM 57.2 °F - 55.4 °F 94% 29.86 in 10.0 mi South 10.4 mph - N/A Rain Light Rain
9:53 AM 57.0 °F - 55.9 °F 96% 29.83 in 6.0 mi South 11.5 mph - 0.05 in Rain Rain
10:53 AM 57.0 °F - 55.0 °F 93% 29.83 in 10.0 mi South 6.9 mph - 0.01 in   Overcast
11:53 AM 57.9 °F - 55.0 °F 90% 29.81 in 10.0 mi South 13.8 mph - N/A   Overcast
12:14 PM 59.0 °F - 55.4 °F 88% 29.81 in 10.0 mi South 15.0 mph 19.6 mph N/A   Overcast
12:48 PM 55.4 °F - 53.6 °F 94% 29.82 in 2.5 mi WNW 18.4 mph 24.2 mph 0.04 in Rain Heavy Rain
12:53 PM 54.0 °F - 53.1 °F 97% 29.81 in 1.5 mi WNW 16.1 mph 24.2 mph 0.08 in Rain Heavy Rain
1:00 PM 53.6 °F - 53.6 °F 100% 29.82 in 1.5 mi WNW 16.1 mph 25.3 mph 0.01 in Rain Rain
1:12 PM 51.8 °F - 51.8 °F 100% 29.83 in 1.5 mi NW 13.8 mph 23.0 mph 0.02 in Rain Light Rain
1:23 PM 51.8 °F - 51.8 °F 100% 29.84 in 10.0 mi NW 20.7 mph 27.6 mph 0.02 in Rain Light Rain
1:53 PM 52.0 °F - 50.0 °F 93% 29.85 in 10.0 mi NW 12.7 mph 21.9 mph 0.02 in   Overcast
2:25 PM 48.2 °F - 48.2 °F 100% 29.88 in 10.0 mi WNW 15.0 mph 23.0 mph N/A   Overcast
2:53 PM 46.0 °F 38.5 °F 45.0 °F 96% 29.89 in 8.0 mi NW 19.6 mph 26.5 mph 0.00 in Rain Light Rain
3:53 PM 44.1 °F 37.1 °F 43.0 °F 96% 29.94 in 7.0 mi NW 15.0 mph - 0.00 in   Overcast
4:53 PM 42.1 °F 35.2 °F 39.9 °F 92% 29.98 in 7.0 mi NNW 12.7 mph 21.9 mph N/A   Overcast
5:41 PM 41.0 °F 32.8 °F 39.2 °F 93% 30.01 in 7.0 mi NNW 16.1 mph 24.2 mph 0.00 in Rain Light Rain
5:53 PM 41.0 °F 33.1 °F 39.9 °F 96% 30.03 in 5.0 mi North 15.0 mph - 0.00 in Rain Light Rain
6:53 PM 41.0 °F 35.2 °F 37.4 °F 87% 30.05 in 8.0 mi North 9.2 mph 23.0 mph N/A Rain Light Rain
7:53 PM 41.0 °F 32.8 °F 37.0 °F 86% 30.08 in 10.0 mi North 16.1 mph 23.0 mph 0.00 in   Overcast
8:53 PM 39.9 °F 34.5 °F 37.9 °F 93% 30.09 in 6.0 mi North 8.1 mph - 0.01 in Rain Light Rain
10:53 PM 41.0 °F 36.4 °F 36.0 °F 82% 30.10 in 10.0 mi North 6.9 mph 19.6 mph 0.01 in   Overcast
11:49 PM 41.0 °F 34.7 °F 35.6 °F 81% 30.10 in 10.0 mi North 10.4 mph 17.3 mph N/A   Overcast
11:53 PM 41.0 °F 33.9 °F 35.1 °F 79% 30.10 in 10.0 mi North 12.7 mph - N/A   Overcast